Time,TemperatureF,DewpointF,PressureIn,WindDirection,WindDirectionDegrees,WindSpeedMPH,WindSpeedGustMPH,Humidity,HourlyPrecipIn,Conditions,Clouds,dailyrainin,SoftwareType,DateUTC
2013-02-18 00:00:00,39.6,18.4,29.44,South,186,10.7,15.9,42,0.00,,---,0.00,VWS V14.00,2013-02-18 06:00:00,
2013-02-18 00:05:00,39.6,18.4,29.44,South,187,8.1,11.5,42,0.00,,---,0.00,VWS V14.00,2013-02-18 06:05:00,
2013-02-18 00:10:00,39.6,18.4,29.44,SSE,160,8.7,11.5,42,0.00,,---,0.00,VWS V14.00,2013-02-18 06:10:00,
2013-02-18 00:15:00,39.6,18.9,29.44,SSE,164,12.1,18.3,43,0.00,,---,0.00,VWS V14.00,2013-02-18 06:15:00,
2013-02-18 00:20:00,39.6,18.9,29.44,South,191,12.4,15.9,43,0.00,,---,0.00,VWS V14.00,2013-02-18 06:20:00,
2013-02-18 00:25:00,39.4,18.8,29.44,South,186,6.0,10.7,43,0.00,,---,0.00,VWS V14.00,2013-02-18 06:25:00,
2013-02-18 00:30:00,39.4,18.8,29.44,South,174,8.1,10.7,43,0.00,,---,0.00,VWS V14.00,2013-02-18 06:30:00,
2013-02-18 00:35:00,39.4,18.8,29.44,South,189,11.4,14.7,43,0.00,,---,0.00,VWS V14.00,2013-02-18 06:35:00,
2013-02-18 00:40:00,39.4,18.8,29.44,South,180,6.0,9.9,43,0.00,,---,0.00,VWS V14.00,2013-02-18 06:40:00,
2013-02-18 00:45:00,39.2,18.6,29.44,SSW,195,11.4,14.7,43,0.00,,---,0.00,VWS V14.00,2013-02-18 06:45:00,
2013-02-18 00:50:00,39.2,18.6,29.44,South,180,6.0,10.7,43,0.00,,---,0.00,VWS V14.00,2013-02-18 06:50:00,
2013-02-18 00:55:00,39.4,18.8,29.44,South,186,6.0,8.2,43,0.00,,---,0.00,VWS V14.00,2013-02-18 06:55:00,
2013-02-18 01:00:00,39.2,18.6,29.44,South,180,4.7,6.6,43,0.00,,---,0.00,VWS V14.00,2013-02-18 07:00:00,
2013-02-18 01:05:00,39.2,18.6,29.44,South,175,7.4,9.9,43,0.00,,---,0.00,VWS V14.00,2013-02-18 07:05:00,
2013-02-18 01:10:00,39.2,19.1,29.44,SSE,163,8.1,10.7,44,0.00,,---,0.00,VWS V14.00,2013-02-18 07:10:00,
2013-02-18 01:15:00,39.2,19.1,29.44,SSW,197,8.1,10.7,44,0.00,,---,0.00,VWS V14.00,2013-02-18 07:15:00,
2013-02-18 01:20:00,39.0,19.0,29.44,SSW,195,8.7,11.5,44,0.00,,---,0.00,VWS V14.00,2013-02-18 07:20:00,
2013-02-18 01:25:00,38.8,18.8,29.44,South,178,8.1,10.7,44,0.00,,---,0.00,VWS V14.00,2013-02-18 07:25:00,
2013-02-18 01:30:00,38.8,19.3,29.44,SSE,162,7.4,10.7,45,0.00,,---,0.00,VWS V14.00,2013-02-18 07:30:00,
2013-02-18 01:35:00,38.8,19.3,29.44,SSE,156,8.1,10.7,45,0.00,,---,0.00,VWS V14.00,2013-02-18 07:35:00,
2013-02-18 01:40:00,38.8,19.3,29.44,SSE,168,7.4,9.9,45,0.00,,---,0.00,VWS V14.00,2013-02-18 07:40:00,
2013-02-18 01:45:00,38.8,19.3,29.44,SSW,202,8.1,10.7,45,0.00,,---,0.00,VWS V14.00,2013-02-18 07:45:00,
2013-02-18 01:50:00,38.8,19.3,29.44,SSE,168,8.7,11.5,45,0.00,,---,0.00,VWS V14.00,2013-02-18 07:50:00,
2013-02-18 01:55:00,38.8,19.8,29.41,South,182,6.0,16.7,46,0.00,,---,0.00,VWS V14.00,2013-02-18 07:55:00,
2013-02-18 02:00:00,38.8,19.8,29.41,South,189,8.7,12.3,46,0.00,,---,0.00,VWS V14.00,2013-02-18 08:00:00,
2013-02-18 02:05:00,38.8,19.8,29.41,South,191,8.7,11.5,46,0.00,,---,0.00,VWS V14.00,2013-02-18 08:05:00,
2013-02-18 02:10:00,38.8,19.8,29.41,South,183,5.4,7.4,46,0.00,,---,0.00,VWS V14.00,2013-02-18 08:10:00,
2013-02-18 02:15:00,38.8,19.8,29.41,South,189,8.7,11.5,46,0.00,,---,0.00,VWS V14.00,2013-02-18 08:15:00,
2013-02-18 02:21:00,38.8,19.8,29.41,South,177,9.4,12.3,46,0.00,,---,0.00,VWS V14.00,2013-02-18 08:21:00,
2013-02-18 02:26:00,39.0,20.5,29.41,SSW,193,8.7,18.3,47,0.00,,---,0.00,VWS V14.00,2013-02-18 08:26:00,
2013-02-18 02:31:00,39.0,20.5,29.41,SSW,212,8.1,10.7,47,0.00,,---,0.00,VWS V14.00,2013-02-18 08:31:00,
2013-02-18 02:36:00,39.2,20.7,29.41,South,179,8.7,11.5,47,0.00,,---,0.00,VWS V14.00,2013-02-18 08:36:00,
2013-02-18 02:41:00,39.4,20.8,29.41,SSW,195,8.1,10.7,47,0.00,,---,0.00,VWS V14.00,2013-02-18 08:41:00,
2013-02-18 02:46:00,39.6,21.0,29.41,SSE,156,8.1,12.3,47,0.00,,---,0.00,VWS V14.00,2013-02-18 08:46:00,
2013-02-18 02:51:00,39.7,21.2,29.41,SSW,197,8.7,12.3,47,0.00,,---,0.00,VWS V14.00,2013-02-18 08:51:00,
2013-02-18 02:56:00,39.7,21.2,29.41,South,187,11.4,14.7,47,0.00,,---,0.00,VWS V14.00,2013-02-18 08:56:00,
2013-02-18 03:01:00,39.7,21.2,29.41,South,185,7.4,16.7,47,0.00,,---,0.00,VWS V14.00,2013-02-18 09:01:00,
2013-02-18 03:06:00,39.9,21.8,29.41,SSW,193,6.0,11.5,48,0.00,,---,0.00,VWS V14.00,2013-02-18 09:06:00,
2013-02-18 03:11:00,39.7,21.7,29.41,South,186,8.1,12.3,48,0.00,,---,0.00,VWS V14.00,2013-02-18 09:11:00,
2013-02-18 03:16:00,39.9,21.8,29.41,SSW,199,8.7,11.5,48,0.00,,---,0.00,VWS V14.00,2013-02-18 09:16:00,
2013-02-18 03:21:00,39.9,21.8,29.41,SSW,194,6.0,12.3,48,0.00,,---,0.00,VWS V14.00,2013-02-18 09:21:00,
2013-02-18 03:26:00,40.1,22.5,29.41,SW,218,8.1,12.3,49,0.00,,---,0.00,VWS V14.00,2013-02-18 09:26:00,
2013-02-18 03:31:00,40.3,22.7,29.41,SSW,202,11.4,14.7,49,0.00,,---,0.00,VWS V14.00,2013-02-18 09:31:00,
2013-02-18 03:36:00,40.3,22.7,29.41,South,182,7.4,9.9,49,0.00,,---,0.00,VWS V14.00,2013-02-18 09:36:00,
2013-02-18 03:41:00,40.3,22.7,29.41,South,189,12.4,15.9,49,0.00,,---,0.00,VWS V14.00,2013-02-18 09:41:00,
2013-02-18 03:46:00,40.5,22.8,29.41,SSW,213,11.4,14.7,49,0.00,,---,0.00,VWS V14.00,2013-02-18 09:46:00,
2013-02-18 03:51:00,40.3,22.7,29.41,SSE,167,7.4,9.9,49,0.00,,---,0.00,VWS V14.00,2013-02-18 09:51:00,
2013-02-18 03:56:00,40.5,22.8,29.41,SSW,196,8.7,12.3,49,0.00,,---,0.00,VWS V14.00,2013-02-18 09:56:00,
2013-02-18 04:01:00,40.3,22.7,29.41,South,181,11.4,14.7,49,0.00,,---,0.00,VWS V14.00,2013-02-18 10:01:00,
2013-02-18 04:06:00,40.3,23.1,29.41,South,172,8.1,14.7,50,0.00,,---,0.00,VWS V14.00,2013-02-18 10:06:00,
2013-02-18 04:11:00,40.3,23.1,29.41,SSW,199,5.4,7.4,50,0.00,,---,0.00,VWS V14.00,2013-02-18 10:11:00,
2013-02-18 04:16:00,40.3,23.1,29.41,South,184,8.1,10.7,50,0.00,,---,0.00,VWS V14.00,2013-02-18 10:16:00,
2013-02-18 04:21:00,40.1,23.0,29.41,South,189,5.4,8.2,50,0.00,,---,0.00,VWS V14.00,2013-02-18 10:21:00,
2013-02-18 04:26:00,40.3,23.1,29.41,South,191,5.4,12.3,50,0.00,,---,0.00,VWS V14.00,2013-02-18 10:26:00,
2013-02-18 04:31:00,40.3,23.1,29.41,South,182,8.1,11.5,50,0.00,,---,0.00,VWS V14.00,2013-02-18 10:31:00,
2013-02-18 04:36:00,40.3,23.6,29.41,South,188,6.0,10.7,51,0.00,,---,0.00,VWS V14.00,2013-02-18 10:36:00,
2013-02-18 04:41:00,39.9,23.3,29.41,South,187,8.7,11.5,51,0.00,,---,0.00,VWS V14.00,2013-02-18 10:41:00,
2013-02-18 04:46:00,39.9,23.3,29.41,South,187,6.0,8.2,51,0.00,,---,0.00,VWS V14.00,2013-02-18 10:46:00,
2013-02-18 04:51:00,39.9,23.3,29.41,South,189,6.0,8.2,51,0.00,,---,0.00,VWS V14.00,2013-02-18 10:51:00,
2013-02-18 04:56:00,39.9,23.3,29.41,South,174,8.7,11.5,51,0.00,,---,0.00,VWS V14.00,2013-02-18 10:56:00,
2013-02-18 05:01:00,39.9,23.3,29.41,South,183,7.4,10.7,51,0.00,,---,0.00,VWS V14.00,2013-02-18 11:01:00,
2013-02-18 05:06:00,40.1,23.9,29.41,South,183,9.4,12.3,52,0.00,,---,0.00,VWS V14.00,2013-02-18 11:06:00,
2013-02-18 05:11:00,40.1,23.9,29.41,SSW,195,4.7,8.2,52,0.00,,---,0.00,VWS V14.00,2013-02-18 11:11:00,
2013-02-18 05:16:00,40.1,23.9,29.41,South,177,5.4,7.4,52,0.00,,---,0.00,VWS V14.00,2013-02-18 11:16:00,
2013-02-18 05:21:00,40.1,24.4,29.41,SSW,192,6.0,8.2,53,0.00,,---,0.00,VWS V14.00,2013-02-18 11:21:00,
2013-02-18 05:26:00,39.9,24.2,29.41,South,191,6.0,8.2,53,0.00,,---,0.00,VWS V14.00,2013-02-18 11:26:00,
2013-02-18 05:31:00,40.1,24.4,29.41,South,185,6.0,14.7,53,0.00,,---,0.00,VWS V14.00,2013-02-18 11:31:00,
2013-02-18 05:36:00,40.3,25.0,29.41,South,172,6.0,8.2,54,0.00,,---,0.00,VWS V14.00,2013-02-18 11:36:00,
2013-02-18 05:41:00,40.3,25.0,29.41,South,191,8.1,10.7,54,0.00,,---,0.00,VWS V14.00,2013-02-18 11:41:00,
2013-02-18 05:46:00,40.5,25.6,29.41,SSW,192,8.1,10.7,55,0.00,,---,0.00,VWS V14.00,2013-02-18 11:46:00,
2013-02-18 05:51:00,40.5,25.6,29.41,South,177,9.4,12.3,55,0.00,,---,0.00,VWS V14.00,2013-02-18 11:51:00,
2013-02-18 05:56:00,40.5,26.0,29.41,South,180,8.1,10.7,56,0.00,,---,0.00,VWS V14.00,2013-02-18 11:56:00,
2013-02-18 06:01:00,40.6,26.2,29.41,South,169,6.0,10.7,56,0.00,,---,0.00,VWS V14.00,2013-02-18 12:01:00,
2013-02-18 06:06:00,40.8,26.4,29.41,South,178,5.4,8.2,56,0.00,,---,0.00,VWS V14.00,2013-02-18 12:06:00,
2013-02-18 06:11:00,40.8,26.8,29.41,South,190,7.4,9.9,57,0.00,,---,0.00,VWS V14.00,2013-02-18 12:11:00,
2013-02-18 06:16:00,40.8,26.8,29.41,South,190,6.0,8.2,57,0.00,,---,0.00,VWS V14.00,2013-02-18 12:16:00,
2013-02-18 06:21:00,41.2,27.5,29.41,South,172,8.1,10.7,58,0.00,,---,0.00,VWS V14.00,2013-02-18 12:21:00,
2013-02-18 06:26:00,41.2,27.5,29.41,SSE,165,8.1,10.7,58,0.00,,---,0.00,VWS V14.00,2013-02-18 12:26:00,
2013-02-18 06:31:00,41.7,28.5,29.41,South,182,8.1,10.7,59,0.00,,---,0.00,VWS V14.00,2013-02-18 12:31:00,
2013-02-18 06:36:00,41.7,28.5,29.41,South,175,8.7,11.5,59,0.00,,---,0.00,VWS V14.00,2013-02-18 12:36:00,
2013-02-18 06:41:00,41.9,28.6,29.41,SSW,193,12.4,15.9,59,0.00,,---,0.00,VWS V14.00,2013-02-18 12:41:00,
2013-02-18 06:46:00,42.3,29.4,29.41,South,179,5.4,12.3,60,0.00,,---,0.00,VWS V14.00,2013-02-18 12:46:00,
2013-02-18 06:51:00,42.3,29.4,29.41,SSW,193,8.7,11.5,60,0.00,,---,0.00,VWS V14.00,2013-02-18 12:51:00,
2013-02-18 06:56:00,42.6,29.7,29.41,SSW,196,12.1,15.5,60,0.00,,---,0.00,VWS V14.00,2013-02-18 12:56:00,
2013-02-18 07:01:00,43.2,30.2,29.41,SSW,202,15.8,19.9,60,0.00,,---,0.00,VWS V14.00,2013-02-18 13:01:00,
2013-02-18 07:06:00,43.7,30.7,29.44,South,190,8.7,12.3,60,0.00,,---,0.00,VWS V14.00,2013-02-18 13:06:00,
2013-02-18 07:11:00,43.7,30.3,29.44,SSW,199,8.7,11.5,59,0.00,,---,0.00,VWS V14.00,2013-02-18 13:11:00,
2013-02-18 07:16:00,44.1,30.7,29.44,SSW,197,12.1,15.5,59,0.00,,---,0.00,VWS V14.00,2013-02-18 13:16:00,
2013-02-18 07:21:00,44.6,30.8,29.44,South,187,11.4,14.7,58,0.00,,---,0.00,VWS V14.00,2013-02-18 13:21:00,
2013-02-18 07:26:00,45.0,31.1,29.44,SSW,213,8.7,11.5,58,0.00,,---,0.00,VWS V14.00,2013-02-18 13:26:00,
2013-02-18 07:31:00,45.3,31.4,29.44,SSW,192,11.4,14.7,58,0.00,,---,0.00,VWS V14.00,2013-02-18 13:31:00,
2013-02-18 07:36:00,45.3,31.4,29.41,SSW,192,12.4,19.1,58,0.00,,---,0.00,VWS V14.00,2013-02-18 13:36:00,
2013-02-18 07:41:00,46.0,31.7,29.41,SW,214,13.1,16.7,57,0.00,,---,0.00,VWS V14.00,2013-02-18 13:41:00,
2013-02-18 07:46:00,46.2,31.8,29.41,SSW,193,8.7,11.5,57,0.00,,---,0.00,VWS V14.00,2013-02-18 13:46:00,
2013-02-18 07:51:00,46.2,31.8,29.44,SSW,204,12.1,19.1,57,0.00,,---,0.00,VWS V14.00,2013-02-18 13:51:00,
2013-02-18 07:56:00,46.0,31.2,29.44,SSW,203,13.1,16.7,56,0.00,,---,0.00,VWS V14.00,2013-02-18 13:56:00,
2013-02-18 08:01:00,46.0,31.2,29.44,SW,231,12.4,15.9,56,0.00,,---,0.00,VWS V14.00,2013-02-18 14:01:00,
2013-02-18 08:06:00,46.0,31.2,29.44,SSW,193,13.1,16.7,56,0.00,,---,0.00,VWS V14.00,2013-02-18 14:06:00,
2013-02-18 08:11:00,46.6,31.7,29.44,SSW,199,8.1,15.9,56,0.00,,---,0.00,VWS V14.00,2013-02-18 14:11:00,
2013-02-18 08:16:00,46.6,31.3,29.44,SSW,205,12.1,19.9,55,0.00,,---,0.00,VWS V14.00,2013-02-18 14:16:00,
2013-02-18 08:21:00,47.3,32.0,29.41,SSW,199,11.4,16.7,55,0.00,,---,0.00,VWS V14.00,2013-02-18 14:21:00,
2013-02-18 08:26:00,47.7,32.3,29.41,South,180,12.4,24.8,55,0.00,,---,0.00,VWS V14.00,2013-02-18 14:26:00,
2013-02-18 08:31:00,48.4,32.5,29.41,SSE,164,11.4,14.7,54,0.00,,---,0.00,VWS V14.00,2013-02-18 14:31:00,
2013-02-18 08:36:00,48.4,32.5,29.44,SSW,209,9.4,15.9,54,0.00,,---,0.00,VWS V14.00,2013-02-18 14:36:00,
2013-02-18 08:41:00,48.6,32.7,29.44,South,176,13.1,16.7,54,0.00,,---,0.00,VWS V14.00,2013-02-18 14:41:00,
2013-02-18 08:46:00,48.7,32.8,29.44,SSW,211,15.8,19.9,54,0.00,,---,0.00,VWS V14.00,2013-02-18 14:46:00,
2013-02-18 08:51:00,49.1,33.2,29.44,SSE,162,6.7,9.1,54,0.00,,---,0.00,VWS V14.00,2013-02-18 14:51:00,
2013-02-18 08:56:00,49.6,33.7,29.44,SSW,200,8.1,10.7,54,0.00,,---,0.00,VWS V14.00,2013-02-18 14:56:00,
2013-02-18 09:01:00,49.8,33.9,29.44,SSW,209,12.1,15.5,54,0.00,,---,0.00,VWS V14.00,2013-02-18 15:01:00,
2013-02-18 09:06:00,50.2,33.7,29.44,SSW,202,8.7,11.5,53,0.00,,---,0.00,VWS V14.00,2013-02-18 15:06:00,
2013-02-18 09:11:00,50.4,33.9,29.44,WSW,246,16.4,20.7,53,0.00,,---,0.00,VWS V14.00,2013-02-18 15:11:00,
2013-02-18 09:17:00,50.4,33.9,29.44,South,181,12.4,16.7,53,0.00,,---,0.00,VWS V14.00,2013-02-18 15:17:00,
2013-02-18 09:22:00,50.7,33.8,29.44,SSW,192,12.4,16.7,52,0.00,,---,0.00,VWS V14.00,2013-02-18 15:22:00,
2013-02-18 09:26:00,51.1,34.1,29.41,South,191,12.1,15.5,52,0.00,,---,0.00,VWS V14.00,2013-02-18 15:26:00,
2013-02-18 09:31:00,51.6,34.6,29.41,South,172,13.1,16.7,52,0.00,,---,0.00,VWS V14.00,2013-02-18 15:31:00,
2013-02-18 09:36:00,52.0,34.4,29.41,SSW,209,15.8,19.9,51,0.00,,---,0.00,VWS V14.00,2013-02-18 15:36:00,
2013-02-18 09:41:00,52.3,34.8,29.41,SSW,202,12.4,16.7,51,0.00,,---,0.00,VWS V14.00,2013-02-18 15:41:00,
2013-02-18 09:46:00,52.3,34.8,29.41,SSW,203,9.4,12.3,51,0.00,,---,0.00,VWS V14.00,2013-02-18 15:46:00,
2013-02-18 09:51:00,52.9,34.3,29.41,SSW,198,11.4,14.7,49,0.00,,---,0.00,VWS V14.00,2013-02-18 15:51:00,
2013-02-18 09:57:00,53.2,34.6,29.41,SSW,211,12.1,15.5,49,0.00,,---,0.00,VWS V14.00,2013-02-18 15:57:00,
2013-02-18 10:01:00,53.8,34.6,29.41,SSW,206,13.1,16.7,48,0.00,,---,0.00,VWS V14.00,2013-02-18 16:01:00,
2013-02-18 10:07:00,54.1,34.4,29.41,SSW,194,12.1,15.5,47,0.00,,---,0.00,VWS V14.00,2013-02-18 16:07:00,
2013-02-18 10:12:00,54.5,34.2,29.41,South,171,10.1,13.1,46,0.00,,---,0.00,VWS V14.00,2013-02-18 16:12:00,
2013-02-18 10:17:00,54.5,33.6,29.41,South,182,15.1,20.7,45,0.00,,---,0.00,VWS V14.00,2013-02-18 16:17:00,
2013-02-18 10:22:00,54.9,32.8,29.41,SSW,204,15.1,19.1,43,0.00,,---,0.00,VWS V14.00,2013-02-18 16:22:00,
2013-02-18 10:27:00,55.6,32.3,29.41,SSW,203,16.4,20.7,41,0.00,,---,0.00,VWS V14.00,2013-02-18 16:27:00,
2013-02-18 10:32:00,55.6,32.3,29.41,South,176,15.8,19.9,41,0.00,,---,0.00,VWS V14.00,2013-02-18 16:32:00,
2013-02-18 10:37:00,55.6,32.3,29.38,SSW,198,12.1,15.5,41,0.00,,---,0.00,VWS V14.00,2013-02-18 16:37:00,
2013-02-18 10:42:00,57.4,33.3,29.38,SW,220,15.1,19.1,40,0.00,,---,0.00,VWS V14.00,2013-02-18 16:42:00,
2013-02-18 10:47:00,57.2,32.5,29.38,South,173,15.8,19.9,39,0.00,,---,0.00,VWS V14.00,2013-02-18 16:47:00,
2013-02-18 10:52:00,56.7,32.6,29.38,SSW,202,15.1,19.9,40,0.00,,---,0.00,VWS V14.00,2013-02-18 16:52:00,
2013-02-18 10:57:00,56.5,32.5,29.38,SSW,196,15.8,19.9,40,0.00,,---,0.00,VWS V14.00,2013-02-18 16:57:00,
2013-02-18 11:02:00,56.5,32.5,29.38,SSE,158,8.1,12.3,40,0.00,,---,0.00,VWS V14.00,2013-02-18 17:02:00,
2013-02-18 11:07:00,58.1,33.9,29.38,SSW,199,15.1,19.1,40,0.00,,---,0.00,VWS V14.00,2013-02-18 17:07:00,
2013-02-18 11:12:00,58.3,33.5,29.38,SSW,199,12.4,15.9,39,0.00,,---,0.00,VWS V14.00,2013-02-18 17:12:00,
2013-02-18 11:17:00,58.5,33.6,29.38,SSW,194,18.5,23.1,39,0.00,,---,0.00,VWS V14.00,2013-02-18 17:17:00,
2013-02-18 11:22:00,58.8,33.9,29.38,SSW,213,13.1,16.7,39,0.00,,---,0.00,VWS V14.00,2013-02-18 17:22:00,
2013-02-18 11:27:00,59.2,33.6,29.38,SSE,155,8.7,14.7,38,0.00,,---,0.00,VWS V14.00,2013-02-18 17:27:00,
2013-02-18 11:32:00,59.5,33.3,29.35,WSW,250,23.2,28.8,37,0.00,,---,0.00,VWS V14.00,2013-02-18 17:32:00,
2013-02-18 11:37:00,59.9,33.6,29.35,SSE,151,12.4,15.9,37,0.00,,---,0.00,VWS V14.00,2013-02-18 17:37:00,
2013-02-18 11:42:00,60.3,33.9,29.35,SSE,166,17.8,32.4,37,0.00,,---,0.00,VWS V14.00,2013-02-18 17:42:00,
2013-02-18 11:47:00,60.6,34.2,29.35,South,179,15.1,23.1,37,0.00,,---,0.00,VWS V14.00,2013-02-18 17:47:00,
2013-02-18 11:52:00,60.6,33.5,29.35,South,189,15.8,19.9,36,0.00,,---,0.00,VWS V14.00,2013-02-18 17:52:00,
2013-02-18 11:57:00,61.0,33.9,29.35,SSW,207,10.7,19.1,36,0.00,,---,0.00,VWS V14.00,2013-02-18 17:57:00,
2013-02-18 12:02:00,60.6,33.5,29.35,SSW,199,15.8,20.7,36,0.00,,---,0.00,VWS V14.00,2013-02-18 18:02:00,
2013-02-18 12:07:00,61.0,33.9,29.32,SSW,193,12.4,15.9,36,0.00,,---,0.00,VWS V14.00,2013-02-18 18:07:00,
2013-02-18 12:12:00,60.4,33.4,29.32,SSW,193,15.8,19.9,36,0.00,,---,0.00,VWS V14.00,2013-02-18 18:12:00,
2013-02-18 12:17:00,60.1,33.1,29.32,SSW,198,16.4,24.8,36,0.00,,---,0.00,VWS V14.00,2013-02-18 18:17:00,
2013-02-18 12:22:00,59.9,32.9,29.32,South,173,12.4,15.9,36,0.00,,---,0.00,VWS V14.00,2013-02-18 18:22:00,
2013-02-18 12:27:00,60.6,33.5,29.32,SSW,213,13.8,19.1,36,0.00,,---,0.00,VWS V14.00,2013-02-18 18:27:00,
2013-02-18 12:32:00,61.2,34.0,29.32,SSW,207,11.4,14.7,36,0.00,,---,0.00,VWS V14.00,2013-02-18 18:32:00,
2013-02-18 12:37:00,60.1,33.1,29.32,South,191,8.1,16.7,36,0.00,,---,0.00,VWS V14.00,2013-02-18 18:37:00,
2013-02-18 12:42:00,59.9,32.9,29.32,SSE,161,17.8,23.1,36,0.00,,---,0.00,VWS V14.00,2013-02-18 18:42:00,
2013-02-18 12:47:00,60.1,33.8,29.32,South,187,11.4,14.7,37,0.00,,---,0.00,VWS V14.00,2013-02-18 18:47:00,
2013-02-18 12:52:00,60.6,34.2,29.29,South,183,12.1,15.5,37,0.00,,---,0.00,VWS V14.00,2013-02-18 18:52:00,
2013-02-18 12:57:00,60.4,34.1,29.29,SSW,210,15.8,28.0,37,0.00,,---,0.00,VWS V14.00,2013-02-18 18:57:00,
2013-02-18 13:02:00,60.3,33.9,29.29,SSW,209,14.4,24.0,37,0.00,,---,0.00,VWS V14.00,2013-02-18 19:02:00,
2013-02-18 13:07:00,60.4,34.1,29.29,SSW,203,12.4,19.1,37,0.00,,---,0.00,VWS V14.00,2013-02-18 19:07:00,
2013-02-18 13:12:00,61.3,34.2,29.29,South,187,16.4,20.7,36,0.00,,---,0.00,VWS V14.00,2013-02-18 19:12:00,
2013-02-18 13:17:00,61.9,34.7,29.26,SSE,161,12.4,15.9,36,0.00,,---,0.00,VWS V14.00,2013-02-18 19:17:00,
2013-02-18 13:22:00,62.6,35.3,29.26,SSW,196,16.4,20.7,36,0.00,,---,0.00,VWS V14.00,2013-02-18 19:22:00,
2013-02-18 13:27:00,63.1,35.8,29.26,SSW,193,12.4,23.1,36,0.00,,---,0.00,VWS V14.00,2013-02-18 19:27:00,
2013-02-18 13:32:00,63.0,35.6,29.26,SSE,168,15.8,19.9,36,0.00,,---,0.00,VWS V14.00,2013-02-18 19:32:00,
2013-02-18 13:37:00,62.2,35.0,29.26,SSW,196,21.8,27.2,36,0.00,,---,0.00,VWS V14.00,2013-02-18 19:37:00,
2013-02-18 13:42:00,61.2,34.0,29.26,SSW,200,18.5,23.1,36,0.00,,---,0.00,VWS V14.00,2013-02-18 19:42:00,
2013-02-18 13:47:00,60.6,34.2,29.26,SSW,203,17.8,22.3,37,0.00,,---,0.00,VWS V14.00,2013-02-18 19:47:00,
2013-02-18 13:52:00,60.3,33.9,29.26,SSW,195,12.4,15.9,37,0.00,,---,0.00,VWS V14.00,2013-02-18 19:52:00,
2013-02-18 13:57:00,60.1,33.8,29.26,SSW,192,19.8,24.8,37,0.00,,---,0.00,VWS V14.00,2013-02-18 19:57:00,
2013-02-18 14:02:00,59.4,33.1,29.26,South,170,13.1,21.5,37,0.00,,---,0.00,VWS V14.00,2013-02-18 20:02:00,
2013-02-18 14:07:00,59.4,33.1,29.23,South,188,15.8,19.9,37,0.00,,---,0.00,VWS V14.00,2013-02-18 20:07:00,
2013-02-18 14:12:00,59.4,33.1,29.23,South,190,15.1,19.1,37,0.00,,---,0.00,VWS V14.00,2013-02-18 20:12:00,
2013-02-18 14:17:00,59.0,33.5,29.23,SSW,205,19.1,24.0,38,0.00,,---,0.00,VWS V14.00,2013-02-18 20:17:00,
2013-02-18 14:22:00,58.8,33.3,29.23,SSW,194,12.4,15.9,38,0.00,,---,0.00,VWS V14.00,2013-02-18 20:22:00,
2013-02-18 14:27:00,58.5,33.6,29.23,SSW,194,17.8,22.3,39,0.00,,---,0.00,VWS V14.00,2013-02-18 20:27:00,
2013-02-18 14:32:00,58.3,33.5,29.23,SSW,212,11.4,14.7,39,0.00,,---,0.00,VWS V14.00,2013-02-18 20:32:00,
2013-02-18 14:37:00,58.1,33.3,29.23,SSW,196,13.1,16.7,39,0.00,,---,0.00,VWS V14.00,2013-02-18 20:37:00,
2013-02-18 14:42:00,58.1,33.3,29.23,SW,214,15.8,19.9,39,0.00,,---,0.00,VWS V14.00,2013-02-18 20:42:00,
2013-02-18 14:47:00,57.9,33.8,29.23,SSW,198,13.1,16.7,40,0.00,,---,0.00,VWS V14.00,2013-02-18 20:47:00,
2013-02-18 14:52:00,57.0,34.8,29.23,SSW,208,9.4,12.3,43,0.00,,---,0.00,VWS V14.00,2013-02-18 20:52:00,
2013-02-18 14:57:00,56.7,35.6,29.23,South,189,13.1,16.7,45,0.00,,---,0.00,VWS V14.00,2013-02-18 20:57:00,
2013-02-18 15:02:00,56.1,35.6,29.23,SSW,193,15.1,19.1,46,0.00,,---,0.00,VWS V14.00,2013-02-18 21:02:00,
2013-02-18 15:07:00,56.1,35.6,29.23,SSW,192,8.1,13.9,46,0.00,,---,0.00,VWS V14.00,2013-02-18 21:07:00,
2013-02-18 15:12:00,56.1,35.6,29.23,SSE,160,12.4,15.9,46,0.00,,---,0.00,VWS V14.00,2013-02-18 21:12:00,
2013-02-18 15:17:00,55.9,36.0,29.23,SSW,199,13.8,17.5,47,0.00,,---,0.00,VWS V14.00,2013-02-18 21:17:00,
2013-02-18 15:22:00,55.9,35.5,29.23,SSW,204,12.1,15.9,46,0.00,,---,0.00,VWS V14.00,2013-02-18 21:22:00,
2013-02-18 15:27:00,56.3,35.2,29.23,SSW,209,11.4,19.1,45,0.00,,---,0.00,VWS V14.00,2013-02-18 21:27:00,
2013-02-18 15:32:00,56.5,35.4,29.21,South,190,8.7,11.5,45,0.00,,---,0.00,VWS V14.00,2013-02-18 21:32:00,
2013-02-18 15:37:00,55.2,36.4,29.21,SSW,212,9.4,12.3,49,0.00,,---,0.00,VWS V14.00,2013-02-18 21:37:00,
2013-02-18 15:42:00,54.1,36.4,29.21,South,190,9.4,12.3,51,0.00,,---,0.00,VWS V14.00,2013-02-18 21:42:00,
2013-02-18 15:47:00,53.1,37.3,29.21,South,183,9.4,12.3,55,0.00,,---,0.00,VWS V14.00,2013-02-18 21:47:00,
2013-02-18 15:52:00,52.5,37.7,29.21,SSW,194,11.4,14.7,57,0.00,,---,0.00,VWS V14.00,2013-02-18 21:52:00,
2013-02-18 15:57:00,52.2,38.3,29.23,SSW,205,8.7,12.3,59,0.00,,---,0.08,VWS V14.00,2013-02-18 21:57:00,
2013-02-18 16:02:00,51.8,38.4,29.23,SSW,207,8.1,10.7,60,0.00,,---,0.08,VWS V14.00,2013-02-18 22:02:00,
2013-02-18 16:07:00,51.6,39.0,29.21,South,170,9.4,12.3,62,0.00,,---,0.08,VWS V14.00,2013-02-18 22:07:00,
2013-02-18 16:12:00,51.8,39.6,29.21,South,187,15.8,19.9,63,0.00,,---,0.08,VWS V14.00,2013-02-18 22:12:00,
2013-02-18 16:17:00,51.8,40.0,29.21,SSE,155,8.7,11.5,64,0.00,,---,0.08,VWS V14.00,2013-02-18 22:17:00,
2013-02-18 16:22:00,51.6,40.7,29.21,South,178,8.1,15.9,66,0.00,,---,0.08,VWS V14.00,2013-02-18 22:22:00,
2013-02-18 16:27:00,51.4,40.9,29.21,South,190,11.4,14.7,67,0.00,,---,0.08,VWS V14.00,2013-02-18 22:27:00,
2013-02-18 16:32:00,51.4,41.2,29.21,South,185,15.1,19.1,68,0.08,,---,0.12,VWS V14.00,2013-02-18 22:32:00,
2013-02-18 16:37:00,51.4,41.6,29.18,SSE,150,8.7,15.9,69,0.08,,---,0.12,VWS V14.00,2013-02-18 22:37:00,
2013-02-18 16:42:00,51.4,42.0,29.18,South,183,15.1,19.9,70,0.08,,---,0.12,VWS V14.00,2013-02-18 22:42:00,
2013-02-18 16:47:00,51.6,42.2,29.18,SSE,164,16.4,20.7,70,0.08,,---,0.12,VWS V14.00,2013-02-18 22:47:00,
2013-02-18 16:52:00,51.4,42.0,29.18,South,185,9.4,12.3,70,0.08,,---,0.12,VWS V14.00,2013-02-18 22:52:00,
2013-02-18 16:57:00,51.1,42.4,29.18,South,180,8.7,11.5,72,0.08,,---,0.12,VWS V14.00,2013-02-18 22:57:00,
2013-02-18 17:02:00,50.9,42.6,29.18,South,183,8.7,11.5,73,0.08,,---,0.12,VWS V14.00,2013-02-18 23:02:00,
2013-02-18 17:07:00,50.9,42.6,29.18,South,170,13.8,17.5,73,0.08,,---,0.16,VWS V14.00,2013-02-18 23:07:00,
2013-02-18 17:12:00,50.9,42.6,29.18,SSE,166,19.8,24.8,73,0.08,,---,0.16,VWS V14.00,2013-02-18 23:12:00,
2013-02-18 17:17:00,50.9,42.6,29.18,SSE,163,8.7,11.5,73,0.08,,---,0.16,VWS V14.00,2013-02-18 23:17:00,
2013-02-18 17:22:00,50.9,42.2,29.15,South,170,12.4,15.9,72,0.08,,---,0.16,VWS V14.00,2013-02-18 23:22:00,
2013-02-18 17:27:00,50.9,42.2,29.15,SSE,161,16.4,20.7,72,0.08,,---,0.16,VWS V14.00,2013-02-18 23:27:00,
2013-02-18 17:32:00,50.9,42.2,29.15,South,185,8.7,11.5,72,0.08,,---,0.16,VWS V14.00,2013-02-18 23:32:00,
2013-02-18 17:37:00,50.9,42.2,29.15,South,171,19.1,32.4,72,0.08,,---,0.16,VWS V14.00,2013-02-18 23:37:00,
2013-02-18 17:42:00,50.9,42.2,29.15,South,179,11.4,14.7,72,0.08,,---,0.16,VWS V14.00,2013-02-18 23:42:00,
2013-02-18 17:47:00,51.1,42.0,29.15,South,183,10.7,13.9,71,0.08,,---,0.16,VWS V14.00,2013-02-18 23:47:00,
2013-02-18 17:52:00,51.3,42.2,29.15,SSE,167,15.8,19.9,71,0.08,,---,0.16,VWS V14.00,2013-02-18 23:52:00,
2013-02-18 17:57:00,51.4,42.0,29.15,South,188,12.1,16.7,70,0.08,,---,0.16,VWS V14.00,2013-02-18 23:57:00,
2013-02-18 18:02:00,51.3,41.8,29.12,SSW,207,12.4,19.1,70,0.08,,---,0.16,VWS V14.00,2013-02-19 00:02:00,
2013-02-18 18:07:00,51.3,41.8,29.12,SSE,161,22.5,28.0,70,0.08,,---,0.16,VWS V14.00,2013-02-19 00:07:00,
2013-02-18 18:12:00,51.6,41.8,29.12,South,186,10.7,13.9,69,0.08,,---,0.16,VWS V14.00,2013-02-19 00:12:00,
2013-02-18 18:17:00,51.6,41.8,29.12,SSW,199,12.1,15.5,69,0.08,,---,0.16,VWS V14.00,2013-02-19 00:17:00,
2013-02-18 18:22:00,51.4,41.6,29.15,SSW,193,12.4,15.9,69,0.08,,---,0.16,VWS V14.00,2013-02-19 00:22:00,
2013-02-18 18:27:00,50.7,41.7,29.15,SSW,192,8.1,11.5,71,0.08,,---,0.16,VWS V14.00,2013-02-19 00:27:00,
2013-02-18 18:32:00,50.4,41.7,29.15,SW,216,15.1,19.1,72,0.08,,---,0.16,VWS V14.00,2013-02-19 00:32:00,
2013-02-18 18:37:00,50.0,41.7,29.15,South,189,7.4,9.9,73,0.08,,---,0.16,VWS V14.00,2013-02-19 00:37:00,
2013-02-18 18:42:00,49.8,42.2,29.15,SSE,165,18.5,24.0,75,0.04,,---,0.24,VWS V14.00,2013-02-19 00:42:00,
2013-02-18 18:47:00,50.2,43.9,29.15,SSE,159,13.1,19.9,79,0.04,,---,0.24,VWS V14.00,2013-02-19 00:47:00,
2013-02-18 18:52:00,49.6,43.7,29.15,SW,217,12.1,15.5,80,0.04,,---,0.24,VWS V14.00,2013-02-19 00:52:00,
2013-02-18 18:57:00,49.6,43.7,29.15,South,188,13.1,20.7,80,0.04,,---,0.24,VWS V14.00,2013-02-19 00:57:00,
2013-02-18 19:02:00,49.6,44.1,29.15,South,185,13.1,16.7,81,0.24,,---,0.31,VWS V14.00,2013-02-19 01:02:00,
2013-02-18 19:07:00,49.8,44.5,29.15,SSE,159,19.1,24.0,82,0.24,,---,0.31,VWS V14.00,2013-02-19 01:07:00,
2013-02-18 19:12:00,49.8,44.5,29.15,South,170,12.4,15.9,82,0.24,,---,0.31,VWS V14.00,2013-02-19 01:12:00,
2013-02-18 19:17:00,49.8,44.5,29.15,SSE,167,19.8,24.8,82,0.24,,---,0.31,VWS V14.00,2013-02-19 01:17:00,
2013-02-18 19:23:00,49.8,44.9,29.15,SSE,167,21.8,27.2,83,0.24,,---,0.35,VWS V14.00,2013-02-19 01:23:00,
2013-02-18 19:28:00,49.8,44.9,29.15,South,187,13.1,16.7,83,0.20,,---,0.35,VWS V14.00,2013-02-19 01:28:00,
2013-02-18 19:33:00,49.6,44.7,29.15,South,169,13.8,17.5,83,0.20,,---,0.35,VWS V14.00,2013-02-19 01:33:00,
2013-02-18 19:38:00,49.5,44.5,29.15,SSW,204,12.4,15.9,83,0.20,,---,0.35,VWS V14.00,2013-02-19 01:38:00,
2013-02-18 19:43:00,49.5,44.5,29.15,SSE,164,19.1,24.0,83,0.16,,---,0.39,VWS V14.00,2013-02-19 01:43:00,
2013-02-18 19:48:00,49.5,44.8,29.15,South,183,11.4,14.7,84,0.16,,---,0.39,VWS V14.00,2013-02-19 01:48:00,
2013-02-18 19:53:00,49.5,44.8,29.15,South,169,6.0,24.8,84,0.16,,---,0.39,VWS V14.00,2013-02-19 01:53:00,
2013-02-18 19:58:00,49.3,44.7,29.15,South,180,6.0,8.2,84,0.16,,---,0.39,VWS V14.00,2013-02-19 01:58:00,
2013-02-18 20:03:00,49.3,44.7,29.12,SW,214,21.8,27.2,84,0.16,,---,0.39,VWS V14.00,2013-02-19 02:03:00,
2013-02-18 20:08:00,49.3,45.0,29.12,SSE,167,13.1,16.7,85,0.16,,---,0.39,VWS V14.00,2013-02-19 02:08:00,
2013-02-18 20:13:00,49.1,44.8,29.12,SE,126,11.4,14.7,85,0.12,,---,0.47,VWS V14.00,2013-02-19 02:13:00,
2013-02-18 20:18:00,49.1,44.8,29.12,SSW,198,15.1,19.1,85,0.35,,---,0.51,VWS V14.00,2013-02-19 02:18:00,
2013-02-18 20:23:00,49.1,44.8,29.12,SSE,158,17.1,21.5,85,0.35,,---,0.51,VWS V14.00,2013-02-19 02:23:00,
2013-02-18 20:28:00,49.1,44.8,29.12,South,175,9.4,15.5,85,0.35,,---,0.55,VWS V14.00,2013-02-19 02:28:00,
2013-02-18 20:33:00,48.9,44.9,29.12,WSW,254,8.7,11.5,86,0.35,,---,0.55,VWS V14.00,2013-02-19 02:33:00,
2013-02-18 20:38:00,48.9,45.2,29.12,West,277,16.4,20.7,87,0.35,,---,0.59,VWS V14.00,2013-02-19 02:38:00,
2013-02-18 20:44:00,47.3,44.2,29.12,WSW,250,16.4,24.0,89,0.28,,---,0.59,VWS V14.00,2013-02-19 02:44:00,
2013-02-18 20:49:00,47.3,44.5,29.18,WSW,254,8.7,12.3,90,0.28,,---,0.59,VWS V14.00,2013-02-19 02:49:00,
2013-02-18 20:54:00,47.3,44.5,29.18,WSW,246,8.7,11.5,90,0.28,,---,0.59,VWS V14.00,2013-02-19 02:54:00,
2013-02-18 20:59:00,47.3,44.8,29.18,WSW,244,7.4,16.7,91,0.28,,---,0.59,VWS V14.00,2013-02-19 02:59:00,
2013-02-18 21:04:00,47.3,44.8,29.18,SW,233,8.1,10.7,91,0.24,,---,0.87,VWS V14.00,2013-02-19 03:04:00,
2013-02-18 21:09:00,47.5,45.3,29.18,WSW,243,9.4,12.3,92,0.24,,---,0.87,VWS V14.00,2013-02-19 03:09:00,
2013-02-18 21:14:00,47.7,45.5,29.18,SW,233,8.1,10.7,92,0.24,,---,0.87,VWS V14.00,2013-02-19 03:14:00,
2013-02-18 21:19:00,47.7,45.5,29.18,SSW,210,5.4,7.4,92,0.20,,---,0.91,VWS V14.00,2013-02-19 03:19:00,
2013-02-18 21:24:00,47.7,45.7,29.18,SSW,194,8.1,10.7,93,0.28,,---,0.94,VWS V14.00,2013-02-19 03:24:00,
2013-02-18 21:29:00,47.8,45.9,29.18,South,185,8.7,11.5,93,0.28,,---,0.94,VWS V14.00,2013-02-19 03:29:00,
2013-02-18 21:34:00,47.8,46.2,29.18,SSE,164,10.1,13.1,94,0.28,,---,0.94,VWS V14.00,2013-02-19 03:34:00,
2013-02-18 21:39:00,47.8,46.2,29.12,SSE,165,8.7,11.5,94,0.24,,---,0.98,VWS V14.00,2013-02-19 03:39:00,
2013-02-18 21:44:00,47.8,46.2,29.12,SSE,148,18.5,23.1,94,0.24,,---,0.98,VWS V14.00,2013-02-19 03:44:00,
2013-02-18 21:49:00,47.8,46.5,29.12,SSW,199,9.4,12.3,95,0.24,,---,0.98,VWS V14.00,2013-02-19 03:49:00,
2013-02-18 21:54:00,47.8,46.5,29.12,South,186,12.4,15.9,95,0.24,,---,0.98,VWS V14.00,2013-02-19 03:54:00,
2013-02-18 21:59:00,47.8,46.5,29.12,SSW,202,12.1,15.5,95,0.24,,---,0.98,VWS V14.00,2013-02-19 03:59:00,
2013-02-18 22:04:00,47.8,46.5,29.15,SSW,210,9.4,12.3,95,0.24,,---,0.98,VWS V14.00,2013-02-19 04:04:00,
2013-02-18 22:09:00,47.8,46.5,29.15,SSW,194,12.1,15.5,95,0.24,,---,0.98,VWS V14.00,2013-02-19 04:09:00,
2013-02-18 22:14:00,47.8,46.5,29.15,SSW,198,8.1,10.7,95,0.24,,---,0.98,VWS V14.00,2013-02-19 04:14:00,
2013-02-18 22:19:00,47.8,46.5,29.15,SSW,197,11.4,14.7,95,0.24,,---,0.98,VWS V14.00,2013-02-19 04:19:00,
2013-02-18 22:24:00,48.0,46.7,29.15,SSW,202,16.4,20.7,95,0.24,,---,0.98,VWS V14.00,2013-02-19 04:24:00,
2013-02-18 22:29:00,48.0,46.9,29.15,SSW,194,8.7,11.5,96,0.24,,---,0.98,VWS V14.00,2013-02-19 04:29:00,
2013-02-18 22:34:00,48.2,46.8,29.18,SW,218,12.4,15.9,95,0.24,,---,0.98,VWS V14.00,2013-02-19 04:34:00,
2013-02-18 22:39:00,48.4,47.0,29.18,SW,222,8.7,11.5,95,0.24,,---,0.98,VWS V14.00,2013-02-19 04:39:00,
2013-02-18 22:44:00,48.4,47.0,29.18,SSW,202,8.7,13.1,95,0.24,,---,0.98,VWS V14.00,2013-02-19 04:44:00,
2013-02-18 22:49:00,48.6,47.2,29.18,SSW,211,8.7,11.5,95,0.24,,---,0.98,VWS V14.00,2013-02-19 04:49:00,
2013-02-18 22:54:00,48.7,47.1,29.18,SSW,201,9.4,12.3,94,0.24,,---,0.98,VWS V14.00,2013-02-19 04:54:00,
2013-02-18 22:59:00,48.7,47.1,29.18,SSW,209,8.1,10.7,94,0.24,,---,0.98,VWS V14.00,2013-02-19 04:59:00,
2013-02-18 23:00:00,48.7,47.1,29.18,SSW,209,8.1,10.7,94,0.24,,---,0.98,VWS V14.00,2013-02-19 05:00:00,
2013-02-18 23:01:00,48.7,47.1,29.18,SSW,209,8.1,10.7,94,0.24,,---,0.98,VWS V14.00,2013-02-19 05:01:00,
2013-02-18 23:06:00,48.7,46.8,29.18,SW,234,8.7,11.5,93,0.24,,---,0.98,VWS V14.00,2013-02-19 05:06:00,
2013-02-18 23:11:00,48.9,47.0,29.18,SW,222,9.4,13.9,93,0.24,,---,0.98,VWS V14.00,2013-02-19 05:11:00,
2013-02-18 23:16:00,49.1,47.2,29.18,SW,217,12.1,15.5,93,0.24,,---,0.98,VWS V14.00,2013-02-19 05:16:00,
2013-02-18 23:21:00,49.1,46.9,29.18,SW,220,7.4,9.9,92,0.24,,---,0.98,VWS V14.00,2013-02-19 05:21:00,
2013-02-18 23:26:00,49.1,46.9,29.18,WSW,254,8.7,11.5,92,0.24,,---,0.98,VWS V14.00,2013-02-19 05:26:00,
2013-02-18 23:31:00,49.1,46.9,29.18,WSW,249,8.7,11.5,92,0.24,,---,0.98,VWS V14.00,2013-02-19 05:31:00,
2013-02-18 23:36:00,49.3,47.1,29.18,WNW,290,13.1,16.7,92,0.24,,---,0.98,VWS V14.00,2013-02-19 05:36:00,
2013-02-18 23:41:00,49.1,46.3,29.18,WNW,298,16.4,21.5,90,0.24,,---,0.98,VWS V14.00,2013-02-19 05:41:00,
2013-02-18 23:46:00,48.2,44.5,29.18,West,278,19.1,24.0,87,0.24,,---,0.98,VWS V14.00,2013-02-19 05:46:00,
2013-02-18 23:51:00,47.8,43.9,29.18,WNW,301,16.4,20.7,86,0.00,,---,0.98,VWS V14.00,2013-02-19 05:51:00,
2013-02-18 23:56:00,47.3,43.0,29.21,NNW,335,13.1,16.7,85,0.00,,---,0.98,VWS V14.00,2013-02-19 05:56:00,